Regional Weather Roundup
Issued by NWS

Home | Current Version | Previous Version | Text Only | Print | Product List | Glossary Off
Versions: 1 2 3 4 5 6 7 8 9 10 11 12 13 14 15 16 17 18 19 20 21 22 23 24 25 26 27 28 29 30 31 32 33 34 35 36 37 38 39 40 41 42 43 44 45 46 47 48 49 50

000
ASUS43 KDTX 190510
RWRMI
MICHIGAN HOURLY REGIONAL WEATHER ROUNDUP
NATIONAL WEATHER SERVICE DETROIT/PONTIAC MI
1200 AM EST FRI DEC 19 2014

NOTE: "FAIR" INDICATES FEW OR NO CLOUDS BELOW 12,000 FEET WITH NO
SIGNIFICANT WEATHER AND/OR OBSTRUCTION TO VISIBILITY.

MIZ047>049-052>055-059>063-066>070-074>076-081>083-190600-
SOUTHEAST LOWER MICHIGAN

CITY           SKY/WX    TMP DP  RH WIND       PRES   REMARKS
ADRIAN         CLOUDY    29  25  85 NW9       30.21R WCI  20
ALMA           CLOUDY    27  22  81 CALM      30.22S
ANN ARBOR      CLOUDY    30  28  92 W8        30.18S WCI  22
BAD AXE        CLOUDY    27  24  89 NW8       30.19S WCI  18
CARO           CLOUDY    26  22  83 W8        30.20S WCI  18
DETROIT CITY   CLOUDY    31  25  78 N7        30.19S WCI  24
DETROIT        CLOUDY    30  26  85 N8        30.20R WCI  22
FLINT          CLOUDY    27  22  81 N9        30.21R WCI  18
GROSSE ILE     CLOUDY    30  28  93 NW5       30.18S WCI  25
HILLSDALE      CLOUDY    28  27  98 W9        30.18S FOG     WCI  19
HOWELL         CLOUDY    27  26  97 N5        30.18S WCI  22

CITY           SKY/WX    TMP DP  RH WIND       PRES   REMARKS
JACKSON        CLOUDY    28  26  92 W6        30.19R FOG     WCI  22
LAMBERTVILLE   CLOUDY    32  28  86 W6        30.20S WCI  26
LANSING        CLOUDY    28  25  88 N7        30.20S WCI  21
LAPEER         CLOUDY    25  23  90 NW5       30.20S WCI  20
MASON          MIX PCPN  28  27  94 N3        30.19S
MONROE         CLOUDY    30  28  93 W6        30.18S WCI  24
MT. CLEMENS    CLOUDY    27  27 100 N10       30.18R WCI  17
PONTIAC        FRZ DRZL  26  24  92 N7        30.17S WCI  18
PORT HOPE        N/A     30  22  72 N5        30.17S WCI  25
PORT HURON     CLOUDY    27  23  86 W5        30.19S WCI  21
TRI CITIES     CLOUDY    26  19  74 N6        30.23R WCI  19
TROY           CLOUDY    30  26  83 N6        30.20S WCI  24
SAGINAW HB     CLOUDY    27  23  86 CALM      30.22S
$$
MIZ043>046-050>051-056>058-064>065-071>073-077>080-190600-
SOUTHWEST LOWER MICHIGAN

CITY           SKY/WX    TMP DP  RH WIND       PRES   REMARKS
BATTLE CREEK   CLOUDY    29  25  85 W7        30.19S FOG     WCI  22
BENTON HARBOR  CLOUDY    31  28  89 VRB3      30.22S
BIG RAPIDS     CLOUDY    26  22  85 CALM      30.20S
COLDWATER      CLOUDY    27  26  96 W7        30.20S FOG     WCI  19
FREMONT        FAIR      24  18  77 CALM      30.22S
HOLLAND        CLOUDY    31  24  75 N3        30.22S
GRAND RAPIDS   CLOUDY    29  24  82 N7        30.20S WCI  22
IONIA          CLOUDY    29  25  87 N6        30.19S WCI  23
KALAMAZOO      CLOUDY    28  25  88 SW6       30.20S FOG     WCI  22
LUDINGTON      CLEAR     16  13  88 CALM      30.24S FOG
MARSHALL       CLOUDY    27  25  93 SW5       30.19S FOG     WCI  21
MOUNT PLEASANT CLOUDY    27  20  77 NW5       30.21S WCI  21
MUSKEGON       PTCLDY    27  19  72 N7        30.23S WCI  19
SOUTH HAVEN    CLOUDY    32  25  74 N7        30.22R WCI  26
$$
MIZ016>042-190600-
NORTHERN LOWER MICHIGAN

CITY           SKY/WX    TMP DP  RH WIND       PRES   REMARKS
ALPENA         CLEAR     15  12  88 CALM      30.22R
BEAVER ISLAND  CLEAR     13  12  94 CALM      30.25S
BELLAIRE       PTCLDY    11   9  90 CALM      30.27R
CADILLAC       MOCLDY     8   5  89 CALM      30.19R
CHARLEVOIX     PTCLDY    16  13  90 CALM      30.27R
FRANKFORT      CLEAR     14  13  95 CALM      30.24S
GAYLORD        PTCLDY     5   2  87 CALM      30.20R
GRAYLING       PTCLDY     8   6  91 CALM      30.22R
HARBOR SPRINGS PTCLDY    11   8  89 CALM      30.24R
HOUGHTON LAKE  CLOUDY    19  15  84 CALM      30.21R
MANISTEE       CLEAR     14  10  85 E5        30.24S WCI   6
OSCODA         CLEAR     17  14  88 W6        30.20S WCI   8
PELLSTON       PTCLDY     3  -2  79 CALM      30.24S
ROGERS CITY    CLEAR     13  12  97 SW3       30.23S
TRAVERSE CITY  CLEAR     15  12  88 CALM      30.24S
$$
MIZ007>008-015-190600-
EASTERN UPPER MICHIGAN

CITY           SKY/WX    TMP DP  RH WIND       PRES   REMARKS
KINROSS        PTCLDY    12  10  92 CALM      30.23S
MACKINAC ISLAN PTCLDY    21  14  75 N7        30.23S WCI  12
NEWBERRY       PTCLDY     9   9  98 NW5       30.24R WCI   1
S. S. MARIE    PTCLDY    11   7  84 CALM      30.21F
MUNISING         N/A     19  14  81 S7        30.26R WCI  10
$$
MIZ004>006-011>014-085-190600-
CENTRAL UPPER MICHIGAN

CITY           SKY/WX    TMP DP  RH WIND       PRES   REMARKS
MANISTIQUE     PTCLDY    16  14  93 N6        30.25S WCI   7
ESCANABA       PTCLDY    12   3  67 NW6       30.26S WCI   3
MENOMINEE      CLEAR     18  14  86 NW3       30.26S
SAWYER-GWINN   CLOUDY    16  14  91 CALM      30.24R
$$
MIZ001>003-009>011-084-190600-
WESTERN UPPER MICHIGAN

CITY           SKY/WX    TMP DP  RH WIND       PRES   REMARKS
IRON MOUNTAIN  PTCLDY     6   3  87 CALM      30.24R
HOUGHTON       CLEAR      8   3  80 CALM      30.25R
COPPER HARBOR    N/A     22  17  81 SW5       30.27S WCI  16
IRONWOOD       PTCLDY    12   9  85 CALM      30.22S
$$

ABBREVIATIONS USED IN REMARKS
   TC - TEMPERATURE IN CELSIUS
  WCI - WIND CHILL INDEX
   HX - HEAT INDEX
  VSB - VISIBILITY




USA.gov is the U.S. government's official web portal to all federal, state and local government web resources and services.